Wautoma, WI

4:19 AM CST on January 16, 2018 (GMT -0600)
Wautoma

Weather History for KY50 - January, 2012

Change the Weather History Date:

Sunday, January 29, 2012

  Actual Average (KPCZ) Record (KPCZ)
Temperature  
Mean Temperature 12 °F -  
Max Temperature 23 °F 25 °F 52 °F (1989)
Min Temperature 2 °F 7 °F -23 °F (1951)
Degree Days  
Heating Degree Days 52    
Moisture  
Dew Point 7 °F    
Average Humidity 81    
Maximum Humidity 93    
Minimum Humidity 51    
Precipitation  
Precipitation 0.00 in - - ()
Sea Level Pressure  
Sea Level Pressure 30.06 in    
Wind  
Wind Speed 2 mph (WNW)    
Max Wind Speed 17 mph    
Max Gust Speed 20 mph    
Visibility 8 miles    
Events Snow    
Averages and records for this station are not official NWS values.
T = Trace of Precipitation, MM = Missing Value Source: NWS Daily Summary

Daily Weather History Graph

Daily Weather History Graph

Search for Another Location

Airport or City:

Trip Planner

Search our weather history database for the weather conditions in past years. The results will help you decide how hot, cold, wet, or windy it might be!

Date:

Astronomy

Jan. 29, 2012 Rise Set
Actual Time 7:18 AM CST 5:02 PM CST
Civil Twilight 6:47 AM CST 5:33 PM CST
Nautical Twilight 6:12 AM CST 6:08 PM CST
Astronomical Twilight 5:38 AM CST 6:42 PM CST
Moon 9:53 AM CST (1/29) No Moon Set
Length of Visible Light 10h 46m
Length of Day
9h 44m
Waxing Crescent, 37% of the Moon is Illuminated
Jan 29
Waxing Crescent
Jan 30
First Quarter
Feb 7
Full
Feb 14
Last Quarter
Feb 21
New

Hourly Weather History & Observations

Time (CST) Temp. Windchill Dew Point Humidity Pressure Visibility Wind Dir Wind Speed Gust Speed Precip Events Conditions
12:56 AM 5.0 °F - 2.1 °F 88% 29.98 in 10.0 mi Calm Calm - N/A   Clear
1:56 AM 7.2 °F - 4.1 °F 87% 29.98 in 10.0 mi Calm Calm - N/A   Mostly Cloudy
2:56 AM 10.0 °F - 8.1 °F 92% 29.97 in 3.0 mi Calm Calm - 0.00 in Snow Light Snow
3:14 AM 10.4 °F - 8.6 °F 92% 29.93 in 5.0 mi Calm Calm - 0.00 in Snow Light Snow
3:31 AM 12.2 °F - 8.6 °F 85% 29.93 in 2.5 mi Calm Calm - 0.00 in Snow Light Snow
3:34 AM 12.2 °F - 8.6 °F 85% 29.93 in 1.8 mi Calm Calm - 0.00 in Snow Light Snow
3:56 AM 12.0 °F - 10.0 °F 92% 29.97 in 1.5 mi Calm Calm - 0.00 in Snow Light Snow
4:14 AM 12.2 °F - 10.4 °F 92% 29.93 in 2.5 mi Calm Calm - 0.00 in Snow Light Snow
4:25 AM 14.0 °F - 12.2 °F 93% 29.93 in 3.0 mi Calm Calm - 0.00 in Snow Light Snow
4:42 AM 14.0 °F - 12.2 °F 93% 29.94 in 8.0 mi Calm Calm - 0.00 in Snow Light Snow
4:56 AM 14.0 °F - 12.0 °F 92% 29.97 in 4.0 mi Calm Calm - 0.00 in Snow Light Snow
6:56 AM 12.0 °F - 9.1 °F 88% 30.02 in 10.0 mi Calm Calm - N/A   Clear
7:56 AM 11.1 °F 1.7 °F 8.1 °F 87% 30.05 in 10.0 mi NW 5.8 mph - N/A   Clear
8:56 AM 15.1 °F 4.2 °F 9.1 °F 77% 30.07 in 10.0 mi NW 8.1 mph - N/A   Clear
10:56 AM 19.0 °F 6.8 °F 10.0 °F 68% 30.12 in 10.0 mi WNW 11.5 mph - N/A   Clear
11:56 AM 20.1 °F 6.9 °F 11.1 °F 68% 30.12 in 10.0 mi WNW 13.8 mph 19.6 mph N/A   Clear
12:56 PM 21.0 °F 8.1 °F 10.0 °F 63% 30.12 in 10.0 mi WNW 13.8 mph - N/A   Clear
1:56 PM 22.1 °F 8.0 °F 8.1 °F 55% 30.12 in 10.0 mi WNW 17.3 mph - N/A   Clear
2:56 PM 23.0 °F 10.6 °F 7.2 °F 51% 30.12 in 10.0 mi WNW 13.8 mph - N/A   Clear
5:56 PM 16.2 °F - 3.0 °F 56% 30.18 in 10.0 mi Calm Calm - N/A   Clear
6:56 PM 11.1 °F - 3.0 °F 70% 30.20 in 10.0 mi Calm Calm - N/A   Clear
7:56 PM 8.1 °F - 2.1 °F 77% 30.21 in 10.0 mi Calm Calm - N/A   Clear
8:56 PM 4.1 °F - 0.1 °F 84% 30.20 in 10.0 mi Calm Calm - N/A   Clear
9:56 PM 4.1 °F - 1.0 °F 87% 30.21 in 10.0 mi Calm Calm - N/A   Clear
10:56 PM 2.1 °F - -0.9 °F 87% 30.20 in 10.0 mi Calm Calm - N/A   Partly Cloudy
11:56 PM 3.0 °F - 0.1 °F 88% 30.20 in 10.0 mi Calm Calm - N/A   Overcast